Location: *
(44.3683°N, 6.6958°E)
Time: 06:47:58
(UTC+00:00)

USA 116 - Pass Details

Date: 14 October 2019
Orbit: 405 x 834 km, 97.9° (Epoch: 18 November)

Event Time Altitude Azimuth Distance (km) Brightness Sun altitude
Rises 18:13:54 0° 9° (N) 2,341 6.9 -15.5°
Reaches altitude 10° 18:15:53 10° 5° (N) 1,477 5.9 -15.9°
Maximum altitude 18:18:56 59° 286° (WNW) 486 3.7 -16.4°
Drops below altitude 10° 18:22:07 10° 206° (SSW) 1,526 6.2 -17.0°
Sets 18:24:11 0° 202° (SSW) 2,430 7.2 -17.3°
